�N����,����,�~����,�C��,���x,�C��,����,���ϕ���,�ő�u�ԕ���,�ő厞����,���˗�,�I�_���x,�n�����x,�ő啗���N��,DTYPE
"20/12/16","00:10",0.0,1.8,85.3,1013.0,289.9,2.7,4.2,308.3,0.00,-0.4,6.1,"00:02:20",1
"20/12/16","00:20",0.0,1.7,85.1,1013.0,287.5,2.6,4.1,298.1,0.00,-0.5,6.2,"00:18:02",1
"20/12/16","00:30",0.0,1.9,84.9,1012.8,283.3,3.0,4.1,267.9,0.00,-0.3,6.2,"00:26:28",1
"20/12/16","00:40",0.0,1.8,84.7,1012.3,289.3,3.1,4.5,272.7,0.00,-0.5,6.1,"00:39:58",1
"20/12/16","00:50",0.0,1.9,84.6,1012.8,308.2,3.9,5.2,330.0,0.00,-0.4,6.0,"00:43:14",1
"20/12/16","01:00",0.0,1.9,84.5,1012.6,297.4,3.7,5.4,312.4,0.00,-0.4,6.1,"00:51:42",1
"20/12/16","01:10",0.0,1.9,84.2,1012.6,301.0,3.4,7.0,326.4,0.00,-0.4,6.1,"01:00:24",1
"20/12/16","01:20",0.0,1.7,84.0,1012.6,286.9,2.5,5.4,318.7,0.00,-0.7,6.0,"01:11:06",1
"20/12/16","01:30",0.0,1.6,84.1,1012.8,280.6,2.7,5.7,310.3,0.00,-0.8,6.0,"01:25:32",1
"20/12/16","01:40",0.0,1.5,84.2,1012.8,285.7,2.5,3.7,304.8,0.00,-0.8,6.1,"01:37:20",1
"20/12/16","01:50",0.0,1.5,84.3,1012.8,290.5,2.6,4.0,308.8,0.00,-0.8,6.1,"01:44:56",1
"20/12/16","02:00",0.0,1.8,84.5,1012.8,287.2,3.1,6.0,326.1,0.00,-0.5,6.2,"01:58:36",1
"20/12/16","02:10",0.0,1.7,84.7,1012.8,291.4,3.0,5.1,318.7,0.00,-0.6,6.0,"02:03:52",1
"20/12/16","02:20",0.0,1.4,85.0,1013.0,301.3,3.1,5.8,325.0,0.00,-0.8,5.9,"02:16:42",1
"20/12/16","02:30",0.0,1.3,85.2,1012.8,288.3,3.4,5.2,309.4,0.00,-0.9,6.0,"02:25:36",1
"20/12/16","02:40",0.0,1.3,85.0,1013.0,309.8,3.6,5.8,334.5,0.00,-0.9,5.9,"02:37:00",1
"20/12/16","02:50",0.0,1.2,84.8,1013.0,308.9,3.5,5.0,334.3,0.00,-1.0,5.8,"02:40:54",1
"20/12/16","03:00",0.0,1.1,84.5,1013.0,304.2,3.7,5.7,323.6,0.00,-1.2,6.0,"02:50:26",1
"20/12/16","03:10",0.0,1.1,84.3,1013.0,300.1,3.6,6.3,306.7,0.00,-1.2,5.9,"03:07:44",1
"20/12/16","03:20",0.0,1.1,84.0,1013.0,291.3,3.6,5.7,311.5,0.00,-1.3,5.7,"03:13:04",1
"20/12/16","03:30",0.0,1.0,83.7,1013.0,299.5,3.1,5.5,325.0,0.00,-1.4,5.9,"03:29:34",1
"20/12/16","03:40",0.0,1.0,83.4,1012.8,306.8,4.1,6.0,325.5,0.00,-1.5,5.8,"03:35:46",1
"20/12/16","03:50",0.0,0.9,83.1,1012.8,301.3,3.9,6.3,313.7,0.00,-1.6,5.7,"03:49:42",1
"20/12/16","04:00",0.0,0.8,82.8,1013.0,290.8,3.5,5.8,301.0,0.00,-1.7,5.8,"03:55:28",1
"20/12/16","04:10",0.0,0.7,82.6,1012.6,295.4,3.1,5.4,318.2,0.00,-1.9,5.7,"04:01:12",1
"20/12/16","04:20",0.0,0.7,82.3,1012.6,295.2,3.4,5.7,321.1,0.00,-1.9,5.6,"04:18:02",1
"20/12/16","04:30",0.0,0.7,82.1,1012.8,291.8,3.5,4.8,302.2,0.00,-2.0,5.7,"04:27:08",1
"20/12/16","04:40",0.0,0.6,81.8,1012.6,289.4,2.8,5.1,312.0,0.00,-2.1,5.6,"04:33:24",1
"20/12/16","04:50",0.0,0.5,81.6,1012.6,284.0,2.5,4.3,292.9,0.00,-2.2,5.5,"04:45:54",1
"20/12/16","05:00",0.0,0.5,81.3,1012.6,290.7,3.0,4.4,320.3,0.00,-2.3,5.5,"04:54:42",1
"20/12/16","05:10",0.0,0.4,81.0,1012.6,286.9,2.7,4.4,297.9,0.00,-2.4,5.4,"05:00:10",1
"20/12/16","05:20",0.0,0.4,80.6,1012.3,292.1,3.0,4.4,318.7,0.00,-2.5,5.6,"05:13:08",1
"20/12/16","05:30",0.0,0.4,80.3,1012.6,301.3,3.1,5.0,282.7,0.00,-2.6,5.4,"05:20:38",1
"20/12/16","05:40",0.0,0.4,80.0,1012.8,301.4,3.6,5.1,327.4,0.00,-2.6,5.4,"05:36:08",1
"20/12/16","05:50",0.0,0.3,79.6,1012.8,294.3,2.8,4.8,327.1,0.00,-2.8,5.3,"05:42:16",1
"20/12/16","06:00",0.0,0.1,79.5,1012.3,283.6,1.7,2.9,292.9,0.00,-3.0,5.3,"05:50:20",1
"20/12/16","06:10",0.0,0.1,79.5,1012.6,297.5,2.1,5.1,312.1,0.00,-3.0,5.2,"06:09:20",1
"20/12/16","06:20",0.0,0.1,79.5,1012.3,295.0,2.5,4.8,341.4,0.00,-3.0,5.2,"06:12:00",1
"20/12/16","06:30",0.0,0.1,79.6,1012.3,314.0,3.4,6.7,338.3,0.00,-3.0,5.4,"06:25:48",1
"20/12/16","06:40",0.0,0.1,79.8,1012.8,294.5,3.1,5.5,310.9,0.00,-2.9,5.2,"06:38:12",1
"20/12/16","06:50",0.0,0.1,79.8,1012.6,296.2,3.1,6.4,323.4,0.00,-2.9,5.2,"06:44:34",1
"20/12/16","07:00",0.0,0.1,79.9,1012.3,289.6,2.7,4.5,288.4,0.00,-2.9,5.2,"06:50:56",1
"20/12/16","07:10",0.0,0.0,80.0,1012.6,292.7,2.5,4.2,317.3,0.00,-3.0,5.2,"07:09:20",1
"20/12/16","07:20",0.0,-0.1,80.1,1012.8,295.0,2.0,4.3,325.6,0.00,-3.1,5.3,"07:14:00",1
"20/12/16","07:30",0.0,-0.1,80.5,1012.8,298.6,2.2,4.5,292.5,0.00,-3.0,5.1,"07:24:48",1
"20/12/16","07:40",0.0,0.0,80.7,1012.8,296.4,2.5,4.5,305.3,0.00,-2.9,5.2,"07:35:36",1
"20/12/16","07:50",0.0,0.0,80.9,1012.6,291.8,2.5,5.0,338.5,0.00,-2.8,5.2,"07:49:54",1
"20/12/16","08:00",0.0,0.4,81.1,1013.3,287.5,3.0,4.5,300.6,0.01,-2.4,5.1,"07:54:16",1
"20/12/16","08:10",0.0,0.6,80.9,1013.0,289.2,3.1,5.2,332.0,0.01,-2.3,5.2,"08:04:10",1
"20/12/16","08:20",0.0,0.6,80.5,1013.0,277.8,2.8,4.4,306.5,0.01,-2.3,5.4,"08:10:08",1
"20/12/16","08:30",0.0,0.9,80.2,1013.3,266.9,2.3,4.1,246.1,0.02,-2.1,5.3,"08:22:16",1
"20/12/16","08:40",0.0,1.0,79.7,1013.0,274.7,2.5,5.0,267.2,0.03,-2.1,5.4,"08:34:12",1
"20/12/16","08:50",0.0,1.3,79.1,1013.5,277.6,2.6,5.0,262.4,0.06,-1.9,5.2,"08:43:02",1
"20/12/16","09:00",0.0,1.9,78.4,1013.5,278.0,2.5,4.7,296.7,0.13,-1.4,5.4,"08:54:24",1
"20/12/16","09:10",0.0,2.1,77.2,1013.3,276.8,2.8,5.5,324.1,0.15,-1.4,5.6,"09:05:36",1
"20/12/16","09:20",0.0,2.4,76.3,1013.8,292.6,3.1,6.8,344.8,0.18,-1.3,5.6,"09:16:08",1
"20/12/16","09:30",0.0,2.8,74.8,1013.8,279.8,3.0,6.5,297.6,0.20,-1.2,5.9,"09:25:36",1
"20/12/16","09:40",0.0,3.1,73.3,1014.0,273.8,3.4,5.2,250.0,0.23,-1.2,6.1,"09:34:36",1
"20/12/16","09:50",0.0,3.4,72.0,1013.8,269.5,3.6,6.3,245.5,0.25,-1.1,6.2,"09:44:32",1
"20/12/16","10:00",0.0,3.7,71.2,1013.8,289.7,3.9,6.0,318.9,0.28,-1.0,6.0,"09:54:54",1
"20/12/16","10:10",0.0,4.1,70.7,1013.8,267.1,2.6,6.7,240.1,0.30,-0.7,6.5,"10:06:40",1
"20/12/16","10:20",0.0,4.3,69.3,1014.0,285.6,3.0,5.0,296.8,0.32,-0.8,6.7,"10:19:58",1
"20/12/16","10:30",0.0,4.7,67.6,1014.0,280.1,3.2,5.2,292.7,0.34,-0.7,7.0,"10:25:24",1
"20/12/16","10:40",0.0,5.0,66.4,1013.3,274.9,3.5,5.9,296.0,0.36,-0.7,6.8,"10:34:44",1
"20/12/16","10:50",0.0,5.4,64.9,1013.3,275.4,3.4,6.0,270.7,0.38,-0.6,7.1,"10:43:04",1
"20/12/16","11:00",0.0,5.7,63.0,1013.0,264.6,2.6,4.0,261.6,0.39,-0.7,7.4,"10:59:06",1
"20/12/16","11:10",0.0,5.8,61.6,1013.3,271.5,3.4,5.4,265.6,0.40,-1.0,7.5,"11:02:56",1
"20/12/16","11:20",0.0,6.0,58.7,1013.0,279.5,3.9,7.5,307.5,0.42,-1.4,7.6,"11:19:36",1
"20/12/16","11:30",0.0,6.2,58.0,1012.8,281.4,3.4,5.8,218.9,0.42,-1.4,7.6,"11:29:26",1
"20/12/16","11:40",0.0,6.7,57.0,1012.8,291.3,2.7,4.7,302.3,0.43,-1.2,8.0,"11:31:40",1
"20/12/16","11:50",0.0,6.7,55.8,1012.8,287.2,3.4,5.8,341.4,0.44,-1.5,8.3,"11:47:08",1
"20/12/16","12:00",0.0,7.0,55.1,1012.3,284.9,3.1,4.5,248.3,0.44,-1.4,8.4,"11:50:32",1
"20/12/16","12:10",0.0,7.1,54.1,1012.3,282.2,3.1,7.0,339.6,0.44,-1.5,8.6,"12:04:54",1
"20/12/16","12:20",0.0,7.1,54.2,1012.6,278.1,3.6,5.5,234.5,0.44,-1.5,8.8,"12:12:48",1
"20/12/16","12:30",0.0,7.7,53.3,1012.1,306.0,3.5,6.0,332.5,0.44,-1.2,9.0,"12:26:22",1
"20/12/16","12:40",0.0,7.3,52.3,1012.3,310.3,4.1,7.4,328.8,0.38,-1.8,9.2,"12:33:30",1
"20/12/16","12:50",0.0,6.9,52.2,1011.9,315.0,4.6,8.1,307.0,0.41,-2.2,9.2,"12:48:32",1
"20/12/16","13:00",0.0,7.3,52.1,1011.9,298.2,3.9,7.9,326.2,0.40,-1.8,9.5,"12:59:26",1
"20/12/16","13:10",0.0,7.4,52.7,1012.1,303.0,3.6,6.3,339.6,0.31,-1.6,9.3,"13:02:18",1
"20/12/16","13:20",0.0,7.5,51.8,1011.6,289.1,3.9,5.8,325.7,0.36,-1.7,9.3,"13:11:38",1
"20/12/16","13:30",0.0,7.4,50.8,1011.9,310.2,4.2,10.4,344.8,0.30,-2.1,9.5,"13:24:36",1
"20/12/16","13:40",0.0,6.8,51.2,1011.4,277.8,4.2,9.0,305.6,0.22,-2.5,9.3,"13:30:10",1
"20/12/16","13:50",0.0,7.1,51.8,1011.6,293.8,3.9,7.3,358.5,0.30,-2.1,9.4,"13:45:00",1
"20/12/16","14:00",0.0,7.3,48.5,1011.6,286.6,3.9,5.9,314.2,0.29,-2.8,9.4,"13:57:58",1
"20/12/16","14:10",0.0,6.9,48.4,1011.6,285.9,3.4,5.2,281.0,0.13,-3.2,9.3,"14:02:26",1
"20/12/16","14:20",0.0,6.9,49.2,1011.4,304.0,3.6,5.6,323.4,0.16,-3.0,9.0,"14:11:08",1
"20/12/16","14:30",0.0,6.5,51.0,1011.4,320.7,4.5,7.1,330.2,0.13,-2.9,9.2,"14:26:06",1
"20/12/16","14:40",0.0,7.0,52.3,1011.4,309.6,3.6,6.2,340.1,0.19,-2.1,9.2,"14:35:20",1
"20/12/16","14:50",0.0,6.9,51.3,1011.6,316.9,4.1,6.0,336.5,0.21,-2.4,8.9,"14:45:30",1
"20/12/16","15:00",0.0,6.8,51.0,1011.4,317.1,4.4,7.9,326.6,0.17,-2.6,9.0,"14:50:38",1
"20/12/16","15:10",0.0,6.1,51.8,1011.6,318.0,5.4,11.4,310.4,0.05,-3.0,8.8,"15:08:58",1
"20/12/16","15:20",0.0,5.8,54.6,1011.4,310.6,4.4,9.1,333.0,0.04,-2.6,8.6,"15:19:46",1
"20/12/16","15:30",0.0,5.5,56.5,1011.4,320.9,5.1,8.1,338.0,0.03,-2.4,8.8,"15:23:04",1
"20/12/16","15:40",0.0,5.4,57.7,1011.9,327.0,4.6,7.2,341.9,0.03,-2.2,8.7,"15:35:24",1
"20/12/16","15:50",0.0,5.1,58.9,1011.6,336.6,5.2,9.5,325.0,0.02,-2.2,8.5,"15:45:28",1
"20/12/16","16:00",0.0,5.0,59.9,1011.4,325.3,5.9,8.8,320.5,0.02,-2.1,8.3,"15:50:24",1
"20/12/16","16:10",0.0,5.0,60.8,1011.6,322.7,4.2,6.5,309.3,0.01,-1.9,8.3,"16:07:28",1
"20/12/16","16:20",0.0,5.1,59.6,1011.4,324.6,5.1,8.1,326.0,0.01,-2.1,8.3,"16:14:48",1
"20/12/16","16:30",0.0,4.9,60.5,1011.6,322.9,3.7,7.2,342.3,0.00,-2.1,8.1,"16:25:44",1
"20/12/16","16:40",0.0,4.6,62.0,1011.6,325.1,4.4,6.8,336.2,0.00,-2.0,8.0,"16:39:20",1
"20/12/16","16:50",0.0,4.6,62.5,1011.4,324.2,3.9,7.1,337.6,0.00,-1.9,7.8,"16:41:28",1
"20/12/16","17:00",0.0,4.6,63.2,1011.6,323.6,3.6,6.0,340.4,0.00,-1.7,7.9,"16:57:36",1
"20/12/16","17:10",0.0,4.5,63.1,1011.4,330.3,4.4,10.1,336.7,0.00,-1.9,7.9,"17:08:56",1
"20/12/16","17:20",0.0,4.1,65.1,1011.4,337.7,4.4,8.8,338.3,0.00,-1.8,7.8,"17:16:40",1
"20/12/16","17:30",0.0,3.9,66.5,1011.6,329.5,4.0,7.5,325.1,0.00,-1.7,7.7,"17:29:12",1
"20/12/16","17:40",0.0,4.2,65.1,1011.9,315.9,4.4,9.0,345.0,0.00,-1.7,7.7,"17:34:00",1
"20/12/16","17:50",0.0,4.2,64.8,1012.1,314.0,4.5,8.2,330.2,0.00,-1.8,7.7,"17:46:08",1
"20/12/16","18:00",0.0,4.2,64.3,1012.1,304.7,4.2,7.5,337.6,0.00,-1.9,7.7,"17:53:36",1
"20/12/16","18:10",0.0,3.9,64.6,1012.1,304.9,3.7,7.2,318.8,0.00,-2.1,7.5,"18:05:54",1
"20/12/16","18:20",0.0,3.8,64.4,1011.9,311.3,4.2,10.0,331.2,0.00,-2.3,7.5,"18:13:22",1
"20/12/16","18:30",0.0,3.8,64.3,1012.3,313.3,4.6,9.3,332.3,0.00,-2.3,7.2,"18:25:44",1
"20/12/16","18:40",0.0,3.4,65.1,1012.1,307.3,3.1,5.4,331.2,0.00,-2.5,7.0,"18:31:04",1
"20/12/16","18:50",0.0,3.5,64.9,1012.3,311.7,3.9,8.0,319.7,0.00,-2.4,7.2,"18:49:04",1
"20/12/16","19:00",0.0,3.4,64.5,1012.3,310.4,3.9,8.2,344.8,0.00,-2.6,7.0,"18:50:42",1
"20/12/16","19:10",0.0,3.4,64.8,1012.1,314.5,4.7,8.0,337.6,0.00,-2.6,7.0,"19:02:32",1
"20/12/16","19:20",0.0,3.4,65.1,1012.8,303.9,4.1,7.8,334.4,0.00,-2.5,6.9,"19:10:08",1
"20/12/16","19:30",0.0,3.6,64.8,1013.0,310.3,5.5,11.1,330.4,0.00,-2.4,7.0,"19:26:54",1
"20/12/16","19:40",0.0,3.2,66.4,1013.0,313.3,4.2,7.0,338.3,0.00,-2.4,6.8,"19:31:52",1
"20/12/16","19:50",0.0,2.9,67.5,1013.0,322.5,5.2,8.9,319.0,0.00,-2.5,7.0,"19:40:40",1
"20/12/16","20:00",0.0,3.0,67.8,1012.8,319.2,4.9,8.3,330.2,0.00,-2.3,6.9,"19:51:52",1
"20/12/16","20:10",0.0,3.2,66.9,1012.6,311.3,4.4,11.3,331.6,0.00,-2.3,6.7,"20:08:16",1
"20/12/16","20:20",0.0,3.1,65.9,1013.0,315.2,4.2,7.5,338.4,0.00,-2.6,6.7,"20:13:20",1
"20/12/16","20:30",0.0,3.1,65.7,1013.0,317.0,4.6,7.4,331.6,0.00,-2.7,6.6,"20:21:44",1
"20/12/16","20:40",0.0,3.2,65.3,1013.0,299.2,4.5,8.7,336.5,0.00,-2.6,6.8,"20:38:26",1
"20/12/16","20:50",0.0,3.0,66.4,1013.0,310.8,5.1,10.9,341.9,0.00,-2.6,6.7,"20:49:06",1
"20/12/16","21:00",0.0,2.9,68.4,1013.3,318.4,4.5,7.5,337.5,0.00,-2.3,6.8,"20:53:32",1
"20/12/16","21:10",0.0,2.4,71.5,1013.3,321.5,4.5,7.4,335.2,0.00,-2.2,6.4,"21:04:16",1
"20/12/16","21:20",0.0,1.8,74.5,1012.8,310.6,5.2,8.7,321.7,0.00,-2.2,6.6,"21:14:26",1
"20/12/16","21:30",0.0,1.5,76.8,1012.6,303.6,4.7,6.4,309.6,0.00,-2.1,6.4,"21:21:48",1
"20/12/16","21:40",0.0,1.5,78.6,1013.0,303.1,4.2,6.2,331.5,0.00,-1.8,6.4,"21:36:14",1
"20/12/16","21:50",0.0,1.3,80.5,1012.8,295.6,4.4,7.1,316.6,0.00,-1.6,6.4,"21:40:28",1
"20/12/16","22:00",0.0,1.3,82.1,1012.8,300.3,4.0,5.9,309.0,0.00,-1.4,6.2,"21:54:36",1
"20/12/16","22:10",0.0,1.3,83.4,1012.8,299.5,3.6,5.0,314.9,0.00,-1.2,6.2,"22:07:10",1
"20/12/16","22:20",0.0,0.9,85.2,1013.0,300.0,4.1,5.5,292.6,0.00,-1.3,6.3,"22:10:48",1
"20/12/16","22:30",0.0,0.6,86.6,1013.0,306.9,3.2,4.4,317.1,0.00,-1.3,6.2,"22:26:30",1
"20/12/16","22:40",0.0,0.6,87.8,1012.6,308.8,3.5,4.9,314.6,0.00,-1.1,6.2,"22:33:44",1
"20/12/16","22:50",0.0,0.6,88.7,1012.8,320.8,4.4,7.8,335.1,0.00,-1.0,6.1,"22:44:40",1
"20/12/16","23:00",0.0,0.7,89.4,1012.6,306.8,4.5,6.8,334.3,0.00,-0.8,6.2,"22:50:48",1
"20/12/16","23:10",0.0,1.1,89.8,1012.8,302.4,4.0,8.7,338.6,0.00,-0.3,6.0,"23:02:26",1
"20/12/16","23:20",0.0,1.1,90.0,1012.8,295.5,3.7,6.3,335.3,0.00,-0.3,6.2,"23:10:18",1
"20/12/16","23:30",0.0,0.8,90.2,1012.6,296.3,3.5,7.1,316.3,0.00,-0.6,5.9,"23:29:52",1
"20/12/16","23:40",0.0,0.9,90.4,1012.8,306.2,4.0,7.3,331.7,0.00,-0.5,6.0,"23:38:22",1
"20/12/16","23:50",0.0,1.0,90.4,1013.0,304.9,4.7,8.3,338.2,0.00,-0.4,6.0,"23:43:40",1
"20/12/16","24:00",0.0,1.0,90.6,1013.0,304.8,3.9,6.8,335.3,0.00,-0.3,6.0,"23:58:30",1
